OpenBCM V1.13 (Linux)

Packet Radio Mailbox

DB0FHN

[JN59NK Nuernberg]

 Login: GUEST





  
LU9DCE > KEP      21.04.19 20:33l 257 Lines 12671 Bytes #999 (0) @ WW
BID : 22313_LU9DCE
Read: DF7EAV DK3UZ GUEST
Subj: TLE 21 04
Path: DB0FHN<DB0BLO<DB0ERF<DB0RES<IR2UBX<IZ3LSV<IK6ZDE<VE2PKT<N3HYM<LU9DCE
Sent: 190421/1800Z 22313@LU9DCE.TOR.BA.ARG.SOAM LinBPQ6.0.18

            __    _  _  ___  ____   ___  ____    ____  ____  ____
           (  )  / )( \/ _ \(    \ / __)(  __)  (  _ \(  _ \/ ___)
           / (_/\) \/ (\__  )) D (( (__  ) _)    ) _ ( ) _ (\___ \
           \____/\____/(___/(____/ \___)(____)  (____/(____/(____/
               ESTACION DE PACKET RADIO - BUENOS AIRES (GF05OM)
                   BOLETINES INFORMATIVOS PROGRAMADOS (BIP)
                  SOPORTE TECNICO - HELLOCODELINUX@GMAIL.COM

+----------------------------------------------------------------------------+
OSCAR 7
1  7530U 74089B   19110.89063235 -.00000048  00000-0 -20957-4 0  9992
2  7530 101.7384  79.1686 0012539  99.9924 317.6371 12.53637698 33150
OSCAR 11 (UoSAT 2)
1 14781U 84021B   19110.66520121  .00000068  00000-0  14520-4 0  9991
2 14781  97.6165 138.1578 0009340 145.4717 214.7106 14.83077695890014
OSCAR 19 (LUSAT)
1 20442U 90005G   19110.80476505  .00000009  00000-0  19449-4 0  9993
2 20442  98.6440  52.9192 0011159 328.2877  31.7634 14.32922602527949
EYESAT A
1 22825U 93061C   19110.93773155 -.00000012 +00000-0 +13236-4 0  9993
2 22825 098.9006 098.2440 0008650 163.0220 197.1253 14.30056123333285
ITAMSAT
1 22826U 93061D   19110.95308541 -.00000022 +00000-0 +94095-5 0  9993
2 22826 098.8946 098.2585 0009378 152.7928 207.3746 14.30389357333500
RADIO ROSTO
1 23439U 94085A   19110.89169476 -.00000053 +00000-0 -31485-3 0  9993
2 23439 064.8164 211.2112 0147430 124.6041 236.8888 11.27567873001268
JAS 2
1 24278U 96046B   19110.91289279 -.00000013 +00000-0 +21787-4 0  9991
2 24278 098.5286 272.3209 0350858 032.6161 329.6131 13.53090580119602
TECHSAT 1B
1 25397U 98043D   19110.86459456 -.00000021  00000-0  10087-4 0  9993
2 25397  98.6845  51.7365 0001200 153.5400 206.5840 14.23663720 79506
ISS (ZARYA)
1 25544U 98067A   19111.45798166  .00001626  00000-0  33469-4 0  9993
2 25544  51.6420 283.1890 0001107 198.5926 254.4759 15.52577592166445
PCSAT
1 26931U 01043C   19111.54163626 -.00000008  00000-0  28562-4 0  9991
2 26931  67.0499 153.7360 0005986 278.5226  81.5197 14.30538961916651
SAUDISAT 1C
1 27607U 02058C   19111.53119406 -.00000010  00000-0  19456-4 0  9990
2 27607  64.5550 227.4119 0082397 267.6017  91.5650 14.75537407878454
CUTE-1
1 27844U 03031E   19110.90694422 +.00000038 +00000-0 +36684-4 0  9992
2 27844 098.6860 119.9946 0009498 194.4441 165.6466 14.22171151819894
CUBESAT XI 4
1 27848U 03031J   19110.95273523 +.00000025 +00000-0 +31092-4 0  9990
2 27848 098.6939 120.5266 0009169 206.0100 154.0618 14.21767192819767
MOZHAYETS 4
1 27939U 03042A   19111.38099651  .00000049  00000-0  17299-4 0  9998
2 27939  98.0298 248.3673 0011588 248.4733 111.5247 14.66770659831997
CUBESAT XI 5
1 28895U 05043F   19110.92143810 +.00000112 +00000-0 +30412-4 0  9992
2 28895 097.9495 255.6980 0017081 172.6401 187.5056 14.63650616718657
CUTE-1.7+APD II
1 32785U 08021C   19111.19325801  .00000195  00000-0  26621-4 0  9994
2 32785  97.5499 113.6687 0014727  96.3641 263.9254 14.88282036594980
DELFI C3
1 32789U 08021G   19110.71770876  .00000681  00000-0  49728-4 0  9994
2 32789  97.4705 162.1478 0011211 334.4863  25.5810 15.06811295598088
SEEDS
1 32791U 08021J   19110.97430308  .00000385  00000-0  44479-4 0  9997
2 32791  97.5296 119.3683 0014955  75.6609 284.6270 14.90779593595361
YUBELEINY
1 32953U 08025A   19111.45461029  .00000020  00000-0  75656-4 0  9996
2 32953  82.5062 180.9795 0017946 254.4974 105.4119 12.43088845495077
PRISM (HITOMI)
1 33493U 09002B   19110.76027494  .00000283  00000-0  30399-4 0  9995
2 33493  98.1222  29.4815 0015751  22.4688 337.7219 14.96584965556337
KKS-1 (KISEKI)
1 33499U 09002H   19110.94499169 +.00000081 +00000-0 +20018-4 0  9996
2 33499 098.3540 307.7655 0010003 040.0177 320.1766 14.75424960550136
SWISSCUBE
1 35932U 09051B   19111.40079915  .00000116  00000-0  37245-4 0  9998
2 35932  98.5816 275.6868 0007274 353.8135   6.2971 14.56265515508290
BEESAT
1 35933U 09051C   19111.13257149  .00000096  00000-0  32753-4 0  9992
2 35933  98.5846 277.1404 0005839  10.8983 349.2340 14.56357046508362
ITUPSAT 1
1 35935U 09051E   19110.95030314 +.00000057 +00000-0 +24212-4 0  9994
2 35935 098.5957 277.1946 0008056 004.7177 355.4094 14.55519435508062
XIWANG-1 (HOPE-1)
1 36122U 09072B   19111.21214084 -.00000009  00000-0  85603-4 0  9993
2 36122 100.0732 116.3413 0007883 114.3332 245.8605 13.16349649449183
TISAT 1
1 36799U 10035E   19110.96414980  .00000471  00000-0  53657-4 0  9998
2 36799  98.1472 261.1984 0010918 279.2522  80.7460 14.91057655476012
JUGNU
1 37839U 11058B   19110.97360149  .00000320  00000-0  29162-4 0  9995
2 37839  19.9619 330.8511 0018931  39.9674  60.2832 14.12647891388944
SRMSAT
1 37841U 11058D   19110.93336753 +.00000307 +00000-0 +23516-4 0  9990
2 37841 019.9731 026.6504 0011719 270.8410 163.6287 14.10629288388293
M-CUBED/EXP-1 PRIME
1 37855U 11061F   19110.84306371  .00001102  00000-0  63343-4 0  9998
2 37855 101.7230 336.2146 0173839 251.2366 106.9915 15.05278893407926
HORYU 2
1 38340U 12025D   19111.53463263  .00000142  00000-0  28854-4 0  9991
2 38340  98.3355 148.3605 0010399 314.0035  46.0315 14.75694709372584
STRAND 1
1 39090U 13009E   19111.14956551  .00000019  00000-0  21769-4 0  9992
2 39090  98.4944 318.0711 0010339 101.3843 258.8504 14.35078882321990
SOMP
1 39134U 13015E   19110.74059823  .00001058  00000-0  58027-4 0  9990
2 39134  64.8636 211.4044 0025303 313.8244  46.0791 15.20004352331634
BEESAT 3
1 39135U 13015F   19110.75627010 +.00000862 +00000-0 +52770-4 0  9992
2 39135 064.8667 228.8373 0012547 318.7246 041.2931 15.17335774330912
BEESAT 2
1 39136U 13015G   19110.83736754  .00000960  00000-0  58512-4 0  9997
2 39136  64.8687 232.2159 0013571 311.3297  48.6660 15.16778335331249
CUBEBUG 1
1 39153U 13018D   19111.50638056  .00000166  00000-0  28603-4 0  9996
2 39153  97.9746 209.9722 0017569  31.6603 328.5662 14.80542856323208
ZACUBE
1 39417U 13066B   19110.92866796 +.00000177 +00000-0 +28691-4 0  9990
2 39417 097.5662 127.7230 0057852 225.5726 134.0746 14.81086498292343
TRITON 1
1 39427U 13066M   19110.96616418 +.00000214 +00000-0 +42132-4 0  9997
2 39427 097.6716 091.9891 0113791 354.3235 005.6672 14.67812901289539
GOMX 1
1 39430U 13066Q   19111.47570693  .00000197  00000-0  44094-4 0  9991
2 39430  97.7403  71.8861 0152951  77.7965 284.0308 14.59223775288116
HUMSAT D
1 39433U 13066T   19111.13896549  .00000480  00000-0  52106-4 0  9996
2 39433  97.5603 161.0174 0032089 134.2610 226.1251 14.92138193294345
CUBEBUG 2
1 39440U 13066AA  19110.96871867 +.00000172 +00000-0 +31081-4 0  9997
2 39440 097.6022 112.8749 0078707 275.8713 083.3530 14.75826093290112
FUNCUBE 1
1 39444U 13066AE  19111.02908650  .00000227  00000-0  34365-4 0  9999
2 39444  97.5646 129.7047 0057102 219.2279 140.4791 14.81898857291243
UWE-3
1 39446U 13066AG  19111.00577284  .00000160  00000-0  28094-4 0  9992
2 39446  97.5830 119.8584 0068550 251.1512 108.2258 14.78360122290592
SPROUT
1 39770U 14029E   19111.23498969  .00000524  00000-0  64291-4 0  9992
2 39770  97.8783 214.9310 0007902 281.7508  78.2831 14.87262696266148
UNISAT 6
1 40012U 14033C   19111.56557656  .00000163  00000-0  31807-4 0  9999
2 40012  97.7661 340.6526 0056962 285.9132  73.5804 14.73952865260127
DUCHIFAT 1
1 40021U 14033M   19111.54531280  .00000416  00000-0  48372-4 0  9998
2 40021  97.9232  35.9522 0011550 239.3635 120.6444 14.90580277262880
QB50P1
1 40025U 14033R   19110.82965249  .00000231  00000-0  30577-4 0  9991
2 40025  97.9066  30.6084 0011002 251.7005 108.3015 14.88906925262566
CHUBUSAT 1
1 40300U 14070C   19111.27176921  .00000603  00000-0  29357-4 0  9996
2 40300  97.3304 186.9244 0018580 261.5783 141.5876 15.22001886247135
NUDT-PHONESAT
1 40900U 15049B   19111.55475934  .00002157  00000-0  95806-4 0  9994
2 40900  97.4391 121.4679 0014239  36.2753  81.5386 15.22544849198815
ZDPS 2A
1 40901U 15049C   19111.53006639  .00000911  00000-0  48567-4 0  9993
2 40901  97.4594 118.1988 0015101  50.4887  71.7170 15.17621454198412
ZDPS 2B
1 40902U 15049D   19111.54608263  .00001254  00000-0  65954-4 0  9996
2 40902  97.4537 115.7937 0015111  48.2182  65.7956 15.17399906198397
XW-2A
1 40903U 15049E   19111.57108289  .00001862  00000-0  46165-4 0  9991
2 40903  97.3444 153.9936 0013745   4.9161 150.8714 15.41624517201292
KAITUO 1A
1 40904U 15049F   19111.43290817  .00000321  00000-0  20488-4 0  9995
2 40904  97.4663 114.4440 0016297  53.8886  80.3548 15.15305802198179
OBJECT G
1 40905U 15049G   19111.53480100  .00000689  00000-0  41143-4 0  9991
2 40905  97.4695 112.1704 0017214  48.4171  67.2433 15.14241611198072
XW-2C
1 40906U 15049H   19111.57504323  .00000440  00000-0  26616-4 0  9993
2 40906  97.4670 114.6217 0016474  44.9989  75.9612 15.15593991198197
XW-2D
1 40907U 15049J   19111.56019836  .00000623  00000-0  36050-4 0  9999
2 40907  97.4651 114.2866 0015679  43.9302  79.5790 15.15776374198204
LILACSAT 2
1 40908U 15049K   19111.36096963  .00000196  00000-0  14444-4 0  9992
2 40908  97.4776 113.0310 0017511  48.3682  58.8166 15.13752095197984
XW-2F
1 40910U 15049M   19111.57508666  .00000875  00000-0  47337-4 0  9997
2 40910  97.4619 116.1711 0016108  37.3120  80.0566 15.17167844198201
XW-2B
1 40911U 15049N   19111.52277036  .00000668  00000-0  38492-4 0  9999
2 40911  97.4671 114.8818 0015541  44.7499  70.9290 15.15709462198099
KAITUO 1B
1 40912U 15049P   19111.56219020  .00001211  00000-0  60194-4 0  9992
2 40912  97.4507 119.6738 0015791  22.6794  93.6853 15.19465022198487
TIANWANG 1C (TW-1C)
1 40926U 15051B   19111.48443304  .00009867  00000-0  15138-3 0  9997
2 40926  97.1428 157.7630 0007444 214.2942 252.9925 15.54468032201113
